SQ9IWE-13 Weather Reports


Display with metric or nautical units.
time (UTC)temp
F
wind
direction
speed
MPH
gust
MPH
rain 1hr
in
rain 24hr
in
rain mn
in
humidity
%
barometer
mb
20260507015001 61 0.0 0.0 0.00 0.00 0.00 72 1006.3
20260507014001 61 0.0 0.0 0.00 0.00 0.00 71 1006.3
20260507013001 62 0.0 0.0 0.00 0.00 0.00 70 1006.4
20260507012001 62 0.0 0.0 0.00 0.00 0.00 69 1006.3
20260507011001 62 0.0 0.0 0.00 0.00 0.00 69 1006.1
20260507010001 63 0.0 0.0 0.00 0.00 0.00 68 1006.0
20260507005001 63 0.0 0.0 0.00 0.00 0.00 68 1006.0
20260507004001 63 0.0 0.0 0.00 0.00 0.00 68 1006.2
20260507003001 63 0.0 0.0 0.00 0.00 0.00 67 1006.1
20260507002001 63 0.0 0.0 0.00 0.00 0.00 67 1006.1
20260507001000 64 0.0 0.0 0.00 0.00 0.00 67 1006.1
20260507000000 64 0.0 0.0 0.00 0.00 0.00 66 1006.1
20260506235000 64 0.0 0.0 0.00 0.00 0.00 65 1006.2
20260506234000 64 0.0 0.0 0.00 0.00 0.00 65 1006.2
20260506233000 64 0.0 0.0 0.00 0.00 0.00 65 1006.2
20260506232000 64 0.0 0.0 0.00 0.00 0.00 66 1006.2
20260506231000 64 0.0 0.0 0.00 0.00 0.00 65 1006.2
20260506230000 64 0.0 0.0 0.00 0.00 0.00 64 1006.2
20260506225000 64 0.0 0.0 0.00 0.00 0.00 64 1006.2
20260506224000 65 0.0 0.0 0.00 0.00 0.00 63 1006.2
20260506223000 65 0.0 0.0 0.00 0.00 0.00 62 1006.3
20260506222000 65 0.0 0.0 0.00 0.00 0.00 62 1006.2
20260506221000 65 0.0 0.0 0.00 0.00 0.00 62 1006.1
20260506220001 66 0.0 0.0 0.00 0.00 0.00 61 1006.1
20260506215001 65 0.0 0.0 0.00 0.00 0.00 62 1006.2
20260506214001 65 0.0 0.0 0.00 0.00 0.00 61 1006.2
20260506213001 64 0.0 0.0 0.00 0.00 0.00 63 1006.1
20260506212001 64 0.0 0.0 0.00 0.00 0.00 63 1006.1
20260506211001 64 0.0 0.0 0.00 0.00 0.00 64 1006.2
20260506210001 65 0.0 0.0 0.00 0.00 0.00 65 1006.2
20260506205001 65 0.0 0.0 0.00 0.00 0.00 64 1006.0
20260506204001 65 0.0 0.0 0.00 0.00 0.00 63 1006.1
20260506203001 66 0.0 0.0 0.00 0.00 0.00 62 1005.9
20260506202001 66 0.0 0.0 0.00 0.00 0.00 61 1006.0
20260506200001 66 0.0 0.0 0.00 0.00 0.00 60 1005.9
20260506195001 67 0.0 0.0 0.00 0.00 0.00 60 1005.7
20260506194001 67 0.0 0.0 0.00 0.00 0.00 59 1005.7
20260506193001 67 0.0 0.0 0.00 0.00 0.00 59 1005.6
20260506192001 67 0.0 0.0 0.00 0.00 0.00 59 1005.7
20260506191001 67 0.0 0.0 0.00 0.00 0.00 60 1005.8
20260506190001 67 0.0 0.0 0.00 0.00 0.00 61 1005.7
20260506185001 67 0.0 0.0 0.00 0.00 0.00 60 1005.7
20260506184001 68 0.0 0.0 0.00 0.00 0.00 61 1005.5
20260506183001 68 0.0 0.0 0.00 0.00 0.00 60 1005.4
20260506182001 68 0.0 0.0 0.00 0.00 0.00 60 1005.4
20260506181001 69 0.0 0.0 0.00 0.00 0.00 60 6.0
20260506180001 69 0.0 0.0 0.00 0.00 0.00 60 1005.3
20260506175001 70 0.0 0.0 0.00 0.00 0.00 58 1005.3
20260506174001 70 0.0 0.0 0.00 0.00 0.00 58 1005.2
20260506173000 69 0.0 0.0 0.00 0.00 0.00 60 1005.2
20260506172000 69 0.0 0.0 0.00 0.00 0.00 64 1005.3
20260506171000 68 0.0 0.0 0.00 0.00 0.00 66 1005.3
20260506170000 68 0.0 0.0 0.00 0.00 0.00 68 1005.3
20260506165000 68 0.0 0.0 0.00 0.00 0.00 64 1005.3
20260506164000 67 0.0 0.0 0.00 0.00 0.00 67 1005.4
20260506163000 67 0.0 0.0 0.00 0.00 0.00 68 1005.4
20260506162000 67 0.0 0.0 0.00 0.00 0.00 66 1005.5
20260506161000 67 0.0 0.0 0.00 0.00 0.00 63 1005.5
20260506160000 67 0.0 0.0 0.00 0.00 0.00 66 1005.5
20260506155000 69 0.0 0.0 0.00 0.00 0.00 62 1005.8
20260506154001 74 0.0 0.0 0.00 0.00 0.00 47 1005.5
20260506153001 75 0.0 0.0 0.00 0.00 0.00 45 1005.6
20260506152001 76 0.0 0.0 0.00 0.00 0.00 43 1005.7
20260506151001 77 0.0 0.0 0.00 0.00 0.00 43 1005.6
20260506150002 77 0.0 0.0 0.00 0.00 0.00 42 1005.7
20260506145001 77 0.0 0.0 0.00 0.00 0.00 44 1005.8
20260506144001 77 0.0 0.0 0.00 0.00 0.00 43 1005.9
20260506143001 77 0.0 0.0 0.00 0.00 0.00 44 1006.0
20260506142001 78 0.0 0.0 0.00 0.00 0.00 42 1006.0
20260506141001 78 0.0 0.0 0.00 0.00 0.00 42 1006.0
20260506140001 78 0.0 0.0 0.00 0.00 0.00 42 1006.1
20260506135001 77 0.0 0.0 0.00 0.00 0.00 42 1006.2
20260506134001 77 0.0 0.0 0.00 0.00 0.00 43 1006.1
20260506133001 77 0.0 0.0 0.00 0.00 0.00 44 1006.2
20260506132001 75 0.0 0.0 0.00 0.00 0.00 44 266.4
20260506131001 77 0.0 0.0 0.00 0.00 0.00 44 1006.3
20260506130001 78 0.0 0.0 0.00 0.00 0.00 44 1006.4
20260506125001 77 0.0 0.0 0.00 0.00 0.00 45 1006.4
20260506124001 76 0.0 0.0 0.00 0.00 0.00 46 1006.5
20260506123001 77 0.0 0.0 0.00 0.00 0.00 45 1006.6
20260506122001 77 0.0 0.0 0.00 0.00 0.00 45 1006.7
20260506121001 77 0.0 0.0 0.00 0.00 0.00 44 1006.7
20260506120001 77 0.0 0.0 0.00 0.00 0.00 45 1006.5
20260506115001 79 0.0 0.0 0.00 0.00 0.00 42 1006.7
20260506114002 83 0.0 0.0 0.00 0.00 0.00 40 1006.0
20260506113001 82 0.0 0.0 0.00 0.00 0.00 41 1006.7
20260506112001 80 0.0 0.0 0.00 0.00 0.00 42 1006.8
20260506111001 81 0.0 0.0 0.00 0.00 0.00 42 1006.7
20260506110001 81 0.0 0.0 0.00 0.00 0.00 42 1006.7
20260506105001 80 0.0 0.0 0.00 0.00 0.00 43 1006.8
20260506104001 80 0.0 0.0 0.00 0.00 0.00 44 1006.8
20260506103001 80 0.0 0.0 0.00 0.00 0.00 43 1006.8
20260506102000 77 0.0 0.0 0.00 0.00 0.00 48 1007.0
20260506101000 75 0.0 0.0 0.00 0.00 0.00 48 6.0
20260506100000 77 0.0 0.0 0.00 0.00 0.00 48 1006.8
20260506095000 76 0.0 0.0 0.00 0.00 0.00 46 1006.7
20260506094000 77 0.0 0.0 0.00 0.00 0.00 45 1006.7
20260506093000 80 0.0 0.0 0.00 0.00 0.00 44 1006.7
20260506091000 79 0.0 0.0 0.00 0.00 0.00 46 1006.5
20260506090000 78 0.0 0.0 0.00 0.00 0.00 46 1006.5
20260506085000 78 0.0 0.0 0.00 0.00 0.00 46 1006.5
20260506084001 79 0.0 0.0 0.00 0.00 0.00 47 1006.5
20260506083001 77 0.0 0.0 0.00 0.00 0.00 51 1006.5
20260506082001 78 0.0 0.0 0.00 0.00 0.00 47 1006.4
20260506081001 76 0.0 0.0 0.00 0.00 0.00 51 1006.5
20260506073001 72 0.0 0.0 0.00 0.00 0.00 54 1006.2
20260506072001 70 0.0 0.0 0.00 0.00 0.00 55 1006.3
20260506071001 70 0.0 0.0 0.00 0.00 0.00 55 1006.2
20260506062001 68 0.0 0.0 0.00 0.00 0.00 56 1006.1
20260506061001 69 0.0 0.0 0.00 0.00 0.00 55 1006.0
20260506051001 68 0.0 0.0 0.00 0.00 0.00 56 1005.9
20260506045001 67 0.0 0.0 0.00 0.00 0.00 57 1005.8
20260506044001 66 0.0 0.0 0.00 0.00 0.00 58 1005.7
20260506043001 62 0.0 0.0 0.00 0.00 0.00 63 1005.7
20260506042001 64 0.0 0.0 0.00 0.00 0.00 60 1005.8
20260506041001 62 0.0 0.0 0.00 0.00 0.00 63 1005.6
20260506040001 58 0.0 0.0 0.00 0.00 0.00 68 1005.6
20260506035001 59 0.0 0.0 0.00 0.00 0.00 67 1005.6
20260506034001 59 0.0 0.0 0.00 0.00 0.00 66 1005.6
20260506033000 59 0.0 0.0 0.00 0.00 0.00 65 1005.5
20260506032000 60 0.0 0.0 0.00 0.00 0.00 64 1005.5
20260506031000 60 0.0 0.0 0.00 0.00 0.00 64 1005.6
20260506030000 59 0.0 0.0 0.00 0.00 0.00 65 1005.7
20260506025000 59 0.0 0.0 0.00 0.00 0.00 64 1005.6
20260506024000 59 0.0 0.0 0.00 0.00 0.00 64 1005.7
20260506023000 59 0.0 0.0 0.00 0.00 0.00 64 1005.6
20260506022000 59 0.0 0.0 0.00 0.00 0.00 64 1005.6
20260506021000 58 0.0 0.0 0.00 0.00 0.00 65 6.0
20260506020000 58 0.0 0.0 0.00 0.00 0.00 65 1005.5